LogoCoinalyze
    Ad-Free Version 홈 마켓 펀딩비
    선물 데이터
    • 집계된 데이터 (코인들)
    • 개별 차트
    • 글로벌 차트
    알림
    TA
    Bitcoin Ethereum BNB Ripple Tron ZCash Dogecoin Monero UNUS SED LEO Chainlink Cardano Stellar Lumens Bitcoin Cash Litecoin Hedera Cronos Polkadot Ethereum Classic Algorand Quant Cosmos VeChain Dash Bitcoin SV BitTorrent Terra Decred Tezos Iota The Graph THETA MultiversX Decentraland NEO Chiliz Golem Horizen Basic Attention Token Qtum 0x DigiByte Beam RIF Token FTX Token Holo FUNToken aelf Ontology Zilliqa Nano Enjin Coin Ravencoin Mask Network Verge Siacoin Status WINk Waves IoTeX iExec RLC Power Ledger Steem Kyber Network Crystal Lisk Ark Ardor WOO Network IOST WAX Icon Storj Loopring Wanchain Bitcoin Diamond Augur AdEx Bitcoin Gold OmiseGO NEM MonaCoin BitShares Ren Komodo V Systems Nuls Mithril SOLVE EOS Maker Aion Nebulas HedgeTrade Bread Fetch.ai TomoChain Polygon Fantom Waltonchain GXChain Bytom Metaverse ETP MaidSafeCoin QASH
    정렬 검색:
    더보기
    • API
    • 캔들 유형
    • 블로그
    • 기부
    • 연락하기
    • 사이트맵
    • Privacy Policy
    • Disclaimer
    • Theme:
    한국어
    • English
    • Français
    • Русский
    • Deutsch
    • Türkçe
    • Nederlands
    • Português (BR)
    • Español
    • 简体中文
    • 日本語
     
    로그인 / 회원가입
    Markets/ Pepe/ PEPE 로 USDC/ PEPEUSDC Binance
    Trades
    WL
    채팅
    통계
    뉴스
    ⦷
    AAA
    0.00000349 865715.00000000 13:06:52
    0.00000349 12029660.00000000 13:06:40
    0.00000350 11428571.00000000 13:04:18
    0.00000349 4872622.00000000 13:02:37
    0.00000349 13191004.00000000 13:02:10
    0.00000350 45974626.00000000 13:00:25
    0.00000350 11528000.00000000 13:00:22
    0.00000350 115746842.00000000 13:00:14
    0.00000351 20227920.00000000 13:00:04
    0.00000351 26341880.00000000 13:00:03
    0.00000351 125071225.00000000 13:00:03
    0.00000351 426210826.00000000 13:00:03
    0.00000350 3144251.00000000 12:59:18
    0.00000350 2955623.00000000 12:59:10
    0.00000351 25583487.00000000 12:59:00
    0.00000352 2055775.00000000 12:58:52
    0.00000351 516513.00000000 12:58:52
    0.00000351 334686708.00000000 12:58:46
    0.00000351 237339171.00000000 12:58:46
    0.00000351 103082292.00000000 12:57:53
    0.00000351 27074892.00000000 12:57:48
    0.00000350 3211685.00000000 12:57:18
    0.00000350 1722413.00000000 12:57:13
    0.00000350 394342.00000000 12:57:13
    0.00000350 519711.00000000 12:57:12
    0.00000350 516724.00000000 12:57:12
    0.00000351 2916261.00000000 12:57:10
    0.00000351 5.00000000 12:57:10
    0.00000351 403298200.00000000 12:57:10
    0.00000352 5698005.00000000 12:57:07
    0.00000351 4285714.00000000 12:57:05
    0.00000351 22206459.00000000 12:57:05
    0.00000351 24000668.00000000 12:57:01
    0.00000351 702749514.00000000 12:57:00
    0.00000350 235243860.00000000 12:55:59
    0.00000350 28571428.00000000 12:55:56
    0.00000350 978021.00000000 12:55:49
    0.00000350 26394091.00000000 12:55:15
    0.00000350 765238.00000000 12:54:52
    0.00000351 599898.00000000 12:54:52
    0.00000350 981171.00000000 12:54:30
    0.00000350 27081171.00000000 12:54:16
    0.00000350 980121.00000000 12:54:14
    0.00000350 77779897.00000000 12:54:14
    0.00000350 15988800.00000000 12:54:10
    0.00000350 51590225.00000000 12:54:10
    0.00000350 279624250.00000000 12:54:10
    0.00000350 4297994.00000000 12:53:51
    0.00000349 18201816.00000000 12:52:03
    0.00000349 981171.00000000 12:51:44
    0.00000349 192367700.00000000 12:51:01
    0.00000349 47831470.00000000 12:50:50
    0.00000349 185663364.00000000 12:50:50
    0.00000349 26100000.00000000 12:50:50
    0.00000349 101709577.00000000 12:50:34
    0.00000349 48900000.00000000 12:50:27
    0.00000349 383864100.00000000 12:50:25
    0.00000349 182114114.00000000 12:50:07
    0.00000349 285574600.00000000 12:49:04
    0.00000349 376582050.00000000 12:48:28
    0.00000349 20057306.00000000 12:47:21
    0.00000348 1584332.00000000 12:46:51
    0.00000349 31190669.00000000 12:46:51
    0.00000348 26100000.00000000 12:45:21
    0.00000348 140728100.00000000 12:45:17
    0.00000349 68931038.00000000 12:45:04
    0.00000348 328113.00000000 12:45:03
    0.00000348 129633121.00000000 12:44:11
    0.00000348 26100000.00000000 12:44:11
    0.00000348 932439.00000000 12:43:21
    0.00000348 7035201.00000000 12:42:16
    0.00000348 3023459558.00000000 12:41:53
    0.00000348 2927013.00000000 12:41:27
    0.00000349 3218120.00000000 12:41:19
    0.00000349 308979500.00000000 12:41:10
    0.00000349 984339.00000000 12:40:37
    0.00000349 26100000.00000000 12:40:37
    0.00000349 11461318.00000000 12:40:22
    0.00000348 4866553.00000000 12:39:52
    0.00000349 327057.00000000 12:39:21
    0.00000349 3439936.00000000 12:38:55
    0.00000350 11428571.00000000 12:38:38
    0.00000349 984339.00000000 12:37:35
    0.00000349 87080906.00000000 12:37:34
    0.00000349 984339.00000000 12:37:24
    0.00000349 101029600.00000000 12:37:24
    0.00000349 283573100.00000000 12:37:20
    0.00000349 983283.00000000 12:37:03
    0.00000349 300504374.00000000 12:37:03
    0.00000349 11461318.00000000 12:36:48
    0.00000349 713989344.00000000 12:35:14
    0.00000350 11428571.00000000 12:35:02
    0.00000350 1292266.00000000 12:34:52
    0.00000350 499883458.00000000 12:34:43
    0.00000350 11428571.00000000 12:33:14
    0.00000349 519711.00000000 12:32:57
    0.00000349 16500020.00000000 12:32:56
    0.00000350 149527850.00000000 12:32:09
    0.00000350 28030800.00000000 12:32:09
    0.00000350 47154965.00000000 12:32:08
    로그아웃
    AAA
    고객 센터
    🙂 🤣 😎 🤗 😛 😉 😜 🤑 🤔 😑 😴 😕 🙃 😲 😇 🙁 😢 😬 😟 😠 🕺 🏃 💪 ✌ 👌 👍 👎 👏 👋 🤝 🍺 🍻 🐋 🐟 🦈 🗽 🚄 ✈ 🛑 🚀 🏦 🌚 ⭐ 🌞 ⚡ 🏆 💰 💲 🔨 ❓ ❗ 💯 🔶 🏁
    ☺
    로그인 또는 회원가입 및 채팅
    24시간
    변동
    +2.35%
    거래량
    462,573,137,119
    고가
    0.00000352
    저가
    0.00000336
    7일
    변동
    -9.35%
    거래량
    3,457,110,052,141
    고가
    0.00000401
    저가
    0.00000336
    30일
    변동
    +19.93%
    거래량
    18,493,189,795,954
    고가
    0.00000455
    저가
    0.00000252
    DOGE, SHIB, PEPE, or Something Else: Which Meme Coin Can Make History in September? (3 AIs Weigh In)
    "DOGE remains the most likely to record the largest move in dollar terms and lead the entire sector," ChatGPT stated.
    cryptopotato.com
    Sept 3, 2026 00:41
    Pepe price rallies 25% as whale demand and futures interest surge
    Key takeaways Pepe has gained 25% this week, including a combined 22% advance over the previous two days. Seven whale transactions worth more than $1 million each occurred Thursday, the highest...
    coinjournal.net
    Aug 21, 2026 08:41
    PEPE Supply on Exchanges Just Took a Massive Hit – What’s Next?
    A drop in PEPE exchange balances has added to bullish expectations despite muted trader interest.
    cryptopotato.com
    Aug 6, 2026 20:02
    PEPE Exchange Outflows Hit Nearly 2-Year High as Whales Accumulate
    Pepe (PEPE) recorded its largest single-day exchange outflow since November 2024, with 4.54 trillion tokens leaving trading platforms, signaling that holders are moving supply away from immediate...
    beincrypto.com
    Aug 6, 2026 04:57
    Meme Coin Based on White House Shooter Conspiracy Rallies 320%
    $HENRY surged 300% after a 2023 Pepe tweet appeared to name the White House shooter, fueling a viral time-travel meme. The post Meme Coin Based on White House Shooter Conspiracy Rallies 320%...
    beincrypto.com
    Apr 27, 2026 16:11
    PEPE surges 4% as market sentiment improves, eyes Key resistance breakout
    Key takeaways Pepe extends gains on Wednesday, stretching its rally from the 50-day EMA. Derivatives data show heightened retail activity as risk-on sentiment returns to the market. Pepe (PEPE) is...
    coinjournal.net
    Apr 22, 2026 11:44
    Why The PEPE Price Could Stage A 55X Rally To Reach New $0.0001 ATH
    The PEPE price has now started to edge back into bullish conversations after the recent inflows into the crypto market. The last time PEPE’s weekly chart printed the kind of structure now...
    newsbtc.com
    Apr 21, 2026 15:30
    Pepe (PEPE) surges 9%, drawing interest from whales
    Key takeaways PEPE is up 9% in the last 24 hours, making it one of the best performers among the top 50 cryptocurrencies by market cap. The rally comes amid renewed interest from whales and retail...
    coinjournal.net
    Apr 16, 2026 07:40
    Murad Says SPX6900 (SPX) Is Primed for a Rally — Is He Right This Time?
    Crypto influencer Murad Mahmudov claims SPX6900 (SPX) is stabilizing at the same market cap level where Dogecoin (DOGE) and Pepe (PEPE) consolidated before their explosive rallies. The...
    beincrypto.com
    Apr 5, 2026 21:36
    The Shiba Inu Of This Cycle: Analyst Shares Why It Is Better To Buy PEPE Now
    In the bull market cycle of 2021-2022, the Shiba Inu meme coin made waves in a way that changed the face of meme coins forever. This came after Dogecoin’s initial 36,000% rally, and Shiba Inu...
    newsbtc.com
    Apr 4, 2026 07:30
    PEPE Explodes by 18% Amid Altcoin Rally, BTC Tapped $74K: Market Watch
    The frog-themed meme coin is today's biggest gainer, followed by TAO, DOT, and BONK.
    cryptopotato.com
    Mar 16, 2026 10:56
    Should PEPE traders brace for volatility as short squeeze potential builds?
    The memecoin market has seen its collective market capitalization drop by 48% over the past year, and 6.9% over the past month, according to CoinMarketCap. According to Glassnode, the memecoin...
    ambcrypto.com
    Mar 7, 2026 18:00
    간단히 명령어를 채팅방에 입력하세요. Nick1을 실제 사용할 닉네임으로 바꾸세요
    • /ignore nick1 채팅 사용자를 차단합니다
    • /unignore nick1 채팅 사용자를 차단 해제합니다
    • /ignorelist 차단된 채팅 사용자 보기